Time,TemperatureF,DewpointF,PressureIn,WindDirection,WindDirectionDegrees,WindSpeedMPH,WindSpeedGustMPH,Humidity,HourlyPrecipIn,Conditions,Clouds,dailyrainin,SoftwareType,DateUTC
2013-11-04 00:12:00,43.0,35.0,30.22,SE,130,4.0,9.0,74,0.00,,,0.01,,2013-11-04 06:12:00,
2013-11-04 00:23:00,42.0,34.0,30.22,SSE,152,4.0,9.0,74,0.00,,,0.01,,2013-11-04 06:23:00,
2013-11-04 00:42:00,42.0,35.0,30.22,ESE,115,3.0,7.0,75,0.00,,,0.01,,2013-11-04 06:42:00,
2013-11-04 00:52:00,42.0,35.0,30.22,SSE,160,3.0,8.0,76,0.00,,,0.01,,2013-11-04 06:52:00,
2013-11-04 01:11:00,41.0,34.0,30.22,SE,146,3.0,10.0,76,0.00,,,0.01,,2013-11-04 07:11:00,
2013-11-04 01:22:00,41.0,34.0,30.22,SSE,148,3.0,7.0,77,0.00,,,0.01,,2013-11-04 07:22:00,
2013-11-04 01:42:00,41.0,35.0,30.23,SSE,164,2.0,6.0,78,0.00,,,0.01,,2013-11-04 07:42:00,
2013-11-04 01:52:00,41.0,35.0,30.23,SE,145,1.0,4.0,78,0.00,,,0.01,,2013-11-04 07:52:00,
2013-11-04 02:12:00,41.0,35.0,30.23,ESE,111,0.0,3.0,79,0.00,,,0.01,,2013-11-04 08:12:00,
2013-11-04 02:21:00,41.0,35.0,30.23,SE,130,1.0,3.0,79,0.00,,,0.01,,2013-11-04 08:21:00,
2013-11-04 02:42:00,43.0,36.0,30.23,SE,146,5.0,8.0,75,0.00,,,0.01,,2013-11-04 08:42:00,
2013-11-04 02:52:00,43.0,35.0,30.22,SSE,148,5.0,9.0,74,0.00,,,0.01,,2013-11-04 08:52:00,
2013-11-04 03:12:00,43.0,36.0,30.22,SE,137,4.0,9.0,75,0.00,,,0.01,,2013-11-04 09:12:00,
2013-11-04 03:21:00,43.0,36.0,30.22,SSE,167,4.0,9.0,76,0.00,,,0.01,,2013-11-04 09:21:00,
2013-11-04 03:43:00,43.0,36.0,30.21,SE,141,4.0,11.0,76,0.00,,,0.01,,2013-11-04 09:43:00,
2013-11-04 03:53:00,43.0,36.0,30.21,South,191,4.0,11.0,76,0.00,,,0.01,,2013-11-04 09:53:00,
2013-11-04 04:12:00,43.0,36.0,30.20,SSE,151,4.0,9.0,76,0.00,,,0.01,,2013-11-04 10:12:00,
2013-11-04 04:23:00,43.0,36.0,30.20,SE,138,4.0,12.0,75,0.00,,,0.01,,2013-11-04 10:23:00,
2013-11-04 04:42:00,44.0,37.0,30.21,South,171,4.0,10.0,75,0.00,,,0.01,,2013-11-04 10:42:00,
2013-11-04 04:52:00,44.0,37.0,30.21,SSE,153,4.0,10.0,75,0.00,,,0.01,,2013-11-04 10:52:00,
2013-11-04 05:12:00,43.0,36.0,30.20,SSE,147,5.0,11.0,76,0.00,,,0.01,,2013-11-04 11:12:00,
2013-11-04 05:22:00,43.0,36.0,30.20,SSE,167,5.0,9.0,77,0.00,,,0.01,,2013-11-04 11:22:00,
2013-11-04 05:42:00,43.0,36.0,30.21,South,174,4.0,11.0,77,0.00,,,0.01,,2013-11-04 11:42:00,
2013-11-04 05:52:00,43.0,36.0,30.20,SE,138,5.0,13.0,77,0.00,,,0.01,,2013-11-04 11:52:00,
2013-11-04 06:12:00,43.0,37.0,30.20,South,178,3.0,12.0,78,0.00,,,0.01,,2013-11-04 12:12:00,
2013-11-04 06:22:00,43.0,37.0,30.20,SSW,196,6.0,11.0,78,0.00,,,0.01,,2013-11-04 12:22:00,
2013-11-04 06:42:00,43.0,36.0,30.19,SSE,167,6.0,12.0,77,0.00,,,0.01,,2013-11-04 12:42:00,
2013-11-04 06:52:00,43.0,36.0,30.18,SE,139,5.0,12.0,77,0.00,,,0.01,,2013-11-04 12:52:00,
2013-11-04 07:11:00,43.0,36.0,30.18,SSE,161,6.0,14.0,77,0.00,,,0.01,,2013-11-04 13:11:00,
2013-11-04 07:21:00,43.0,36.0,30.18,SE,144,6.0,13.0,77,0.00,,,0.01,,2013-11-04 13:21:00,
2013-11-04 07:42:00,44.0,37.0,30.18,SSW,197,5.0,12.0,77,0.00,,,0.01,,2013-11-04 13:42:00,
2013-11-04 07:52:00,44.0,37.0,30.18,SSE,167,5.0,12.0,77,0.00,,,0.01,,2013-11-04 13:52:00,
2013-11-04 08:11:00,44.0,37.0,30.19,South,179,5.0,12.0,76,0.00,,,0.01,,2013-11-04 14:11:00,
2013-11-04 08:22:00,44.0,37.0,30.20,South,181,5.0,14.0,75,0.00,,,0.01,,2013-11-04 14:22:00,
2013-11-04 08:42:00,45.0,38.0,30.20,SSE,153,6.0,13.0,75,0.00,,,0.00,,2013-11-04 14:42:00,
2013-11-04 08:52:00,45.0,37.0,30.19,ESE,123,5.0,13.0,74,0.00,,,0.00,,2013-11-04 14:52:00,
2013-11-04 09:11:00,45.0,37.0,30.19,SSE,160,5.0,12.0,74,0.00,,,0.00,,2013-11-04 15:11:00,
2013-11-04 09:22:00,45.0,37.0,30.19,SSW,200,7.0,13.0,74,0.00,,,0.00,,2013-11-04 15:22:00,
2013-11-04 09:42:00,46.0,38.0,30.19,SE,138,5.0,15.0,74,0.00,,,0.00,,2013-11-04 15:42:00,
2013-11-04 09:52:00,49.0,40.0,30.19,South,178,7.0,13.0,70,0.00,,,0.00,,2013-11-04 15:52:00,
2013-11-04 10:12:00,49.0,39.0,30.19,SSW,207,6.0,15.0,67,0.00,,,0.00,,2013-11-04 16:12:00,
2013-11-04 10:23:00,50.0,39.0,30.18,South,191,7.0,15.0,67,0.00,,,0.00,,2013-11-04 16:23:00,
2013-11-04 10:43:00,51.0,40.0,30.17,South,175,7.0,17.0,65,0.00,,,0.00,,2013-11-04 16:43:00,
2013-11-04 10:53:00,51.0,39.0,30.17,South,185,8.0,16.0,63,0.00,,,0.00,,2013-11-04 16:53:00,
2013-11-04 11:12:00,51.0,38.0,30.17,SSW,194,8.0,17.0,62,0.00,,,0.00,,2013-11-04 17:12:00,
2013-11-04 11:22:00,53.0,40.0,30.16,SE,140,9.0,15.0,62,0.00,,,0.00,,2013-11-04 17:22:00,
2013-11-04 11:42:00,54.0,40.0,30.16,SE,142,8.0,16.0,60,0.00,,,0.00,,2013-11-04 17:42:00,
2013-11-04 11:53:00,54.0,40.0,30.16,SSW,200,10.0,19.0,59,0.00,,,0.00,,2013-11-04 17:53:00,
2013-11-04 12:12:00,56.0,40.0,30.15,South,178,12.0,19.0,55,0.00,,,0.00,,2013-11-04 18:12:00,
2013-11-04 12:23:00,55.0,40.0,30.14,SSW,192,10.0,18.0,57,0.00,,,0.00,,2013-11-04 18:23:00,
2013-11-04 12:42:00,55.0,41.0,30.13,SSW,210,9.0,20.0,59,0.00,,,0.00,,2013-11-04 18:42:00,
2013-11-04 12:52:00,54.0,40.0,30.13,SW,229,13.0,19.0,59,0.00,,,0.00,,2013-11-04 18:52:00,
2013-11-04 13:12:00,55.0,41.0,30.12,SSE,151,10.0,19.0,59,0.00,,,0.00,,2013-11-04 19:12:00,
2013-11-04 13:22:00,56.0,42.0,30.12,SSW,196,12.0,22.0,59,0.00,,,0.00,,2013-11-04 19:22:00,
2013-11-04 13:42:00,56.0,41.0,30.12,South,179,11.0,21.0,58,0.00,,,0.00,,2013-11-04 19:42:00,
2013-11-04 13:52:00,56.0,41.0,30.12,South,190,12.0,21.0,58,0.00,,,0.00,,2013-11-04 19:52:00,
2013-11-04 14:11:00,56.0,42.0,30.12,SSE,165,11.0,22.0,60,0.00,,,0.00,,2013-11-04 20:11:00,
2013-11-04 14:22:00,56.0,43.0,30.11,South,188,9.0,19.0,61,0.00,,,0.00,,2013-11-04 20:22:00,
2013-11-04 14:42:00,55.0,42.0,30.11,South,190,9.0,20.0,62,0.00,,,0.00,,2013-11-04 20:42:00,
2013-11-04 14:52:00,55.0,42.0,30.11,SSW,211,10.0,18.0,62,0.00,,,0.00,,2013-11-04 20:52:00,
2013-11-04 15:12:00,56.0,43.0,30.10,SE,134,9.0,21.0,62,0.00,,,0.00,,2013-11-04 21:12:00,
2013-11-04 15:22:00,55.0,42.0,30.10,SSE,162,8.0,17.0,62,0.00,,,0.00,,2013-11-04 21:22:00,
2013-11-04 15:45:00,55.0,43.0,30.10,SSW,209,10.0,19.0,65,0.00,,,0.00,,2013-11-04 21:45:00,
2013-11-04 15:54:00,55.0,43.0,30.10,SSE,158,10.0,17.0,63,0.00,,,0.00,,2013-11-04 21:54:00,
2013-11-04 16:14:00,54.0,43.0,30.11,SSW,192,8.0,17.0,65,0.00,,,0.00,,2013-11-04 22:14:00,
2013-11-04 16:23:00,54.0,43.0,30.11,SSW,197,8.0,16.0,65,0.00,,,0.00,,2013-11-04 22:23:00,
2013-11-04 16:43:00,54.0,43.0,30.11,South,190,8.0,15.0,66,0.00,,,0.00,,2013-11-04 22:43:00,
2013-11-04 16:53:00,54.0,43.0,30.11,South,178,8.0,13.0,66,0.00,,,0.00,,2013-11-04 22:53:00,
2013-11-04 17:13:00,54.0,43.0,30.11,South,175,8.0,16.0,66,0.00,,,0.00,,2013-11-04 23:13:00,
2013-11-04 17:22:00,54.0,43.0,30.11,SSE,165,6.0,16.0,66,0.00,,,0.00,,2013-11-04 23:22:00,
2013-11-04 17:43:00,54.0,43.0,30.13,SW,227,7.0,13.0,67,0.00,,,0.00,,2013-11-04 23:43:00,
2013-11-04 17:53:00,53.0,43.0,30.14,South,169,5.0,18.0,68,0.00,,,0.00,,2013-11-04 23:53:00,
2013-11-04 18:12:00,53.0,43.0,30.15,South,186,6.0,17.0,68,0.00,,,0.00,,2013-11-05 00:12:00,
2013-11-04 18:22:00,53.0,43.0,30.15,South,171,6.0,11.0,69,0.00,,,0.00,,2013-11-05 00:22:00,
2013-11-04 18:42:00,53.0,43.0,30.16,SW,234,7.0,12.0,70,0.00,,,0.00,,2013-11-05 00:42:00,
2013-11-04 18:52:00,53.0,43.0,30.16,South,178,7.0,14.0,70,0.00,,,0.00,,2013-11-05 00:52:00,
2013-11-04 19:11:00,53.0,43.0,30.16,SSW,213,8.0,12.0,70,0.00,,,0.00,,2013-11-05 01:11:00,
2013-11-04 19:21:00,53.0,43.0,30.16,SW,215,7.0,12.0,70,0.00,,,0.00,,2013-11-05 01:21:00,
2013-11-04 19:42:00,52.0,43.0,30.17,South,169,7.0,13.0,70,0.00,,,0.00,,2013-11-05 01:42:00,
2013-11-04 19:52:00,52.0,43.0,30.17,SSE,157,6.0,12.0,71,0.00,,,0.00,,2013-11-05 01:52:00,
2013-11-04 20:11:00,52.0,43.0,30.17,SSW,196,7.0,13.0,71,0.00,,,0.00,,2013-11-05 02:11:00,
2013-11-04 20:22:00,52.0,43.0,30.17,South,178,6.0,13.0,71,0.00,,,0.00,,2013-11-05 02:22:00,
2013-11-04 20:42:00,52.0,43.0,30.18,SSW,202,6.0,11.0,72,0.00,,,0.00,,2013-11-05 02:42:00,
2013-11-04 20:52:00,52.0,43.0,30.18,SW,214,8.0,12.0,72,0.00,,,0.00,,2013-11-05 02:52:00,
2013-11-04 21:12:00,52.0,43.0,30.18,South,183,7.0,11.0,72,0.00,,,0.00,,2013-11-05 03:12:00,
2013-11-04 21:22:00,52.0,43.0,30.18,South,186,7.0,14.0,72,0.00,,,0.00,,2013-11-05 03:22:00,
2013-11-04 21:44:00,52.0,44.0,30.18,SSE,158,6.0,12.0,73,0.00,,,0.00,,2013-11-05 03:44:00,
2013-11-04 21:54:00,52.0,44.0,30.19,SSW,200,4.0,13.0,73,0.00,,,0.00,,2013-11-05 03:54:00,
2013-11-04 22:13:00,52.0,44.0,30.19,South,184,6.0,11.0,73,0.00,,,0.00,,2013-11-05 04:13:00,
2013-11-04 22:23:00,52.0,44.0,30.19,SSW,194,4.0,10.0,74,0.00,,,0.00,,2013-11-05 04:23:00,
2013-11-04 22:43:00,52.0,44.0,30.20,SSW,209,4.0,9.0,74,0.00,,,0.00,,2013-11-05 04:43:00,
2013-11-04 22:53:00,52.0,44.0,30.20,South,176,5.0,10.0,74,0.00,,,0.00,,2013-11-05 04:53:00,
2013-11-04 23:13:00,51.0,43.0,30.20,SW,214,3.0,7.0,75,0.00,,,0.00,,2013-11-05 05:13:00,
2013-11-04 23:23:00,51.0,44.0,30.20,SSW,193,3.0,9.0,76,0.00,,,0.00,,2013-11-05 05:23:00,
2013-11-04 23:43:00,51.0,44.0,30.20,SW,232,4.0,11.0,76,0.00,,,0.00,,2013-11-05 05:43:00,
2013-11-04 23:54:00,51.0,44.0,30.20,WSW,245,4.0,9.0,76,0.00,,,0.00,,2013-11-05 05:54:00,